N23JP TXKF-MDLR

Flight info

Callsign N23JP
Flight time 2h 35m
Altitude 43000
Route BORNN1 ANTIG DCT DUPOX DCT LUCTI/N0487F430 DCT JSTIN/N0482F450 L453 ASIVO/N0462F180 W37 KOBET T17 PETRI PETRI2D
Aircraft C750/M-SBDE3FGHRWXY/S

Departure

Time 2026-04-27 22:23
Airport L.F. Wade International Airport (TXKF)

Arrival

Time 2026-04-28 00:58
Airport Casa De Campo International Airport (MDLR)
Time Latitude Longitude Altitude Speed Heading
2026-04-27 22:08 32.36505 -64.66909 25 ft 0 kts 193°
2026-04-27 22:15 32.36483 -64.66926 17 ft 7 kts 223°
2026-04-27 22:15 32.36462 -64.66978 25 ft 7 kts 238°
2026-04-27 22:15 32.36412 -64.67011 24 ft 8 kts 234°
2026-04-27 22:15 32.36409 -64.67072 24 ft 8 kts 282°
2026-04-27 22:16 32.36421 -64.67145 25 ft 11 kts 280°
2026-04-27 22:16 32.36441 -64.67262 23 ft 18 kts 281°
2026-04-27 22:16 32.36469 -64.67419 23 ft 21 kts 281°
2026-04-27 22:16 32.36500 -64.67600 23 ft 24 kts 281°
2026-04-27 22:17 32.36533 -64.67802 25 ft 26 kts 282°
2026-04-27 22:17 32.36572 -64.68022 23 ft 29 kts 281°
2026-04-27 22:17 32.36613 -64.68263 24 ft 31 kts 283°
2026-04-27 22:17 32.36654 -64.68498 25 ft 26 kts 284°
2026-04-27 22:18 32.36681 -64.68654 25 ft 17 kts 281°
2026-04-27 22:18 32.36707 -64.68803 26 ft 20 kts 281°
2026-04-27 22:18 32.36708 -64.68915 23 ft 0 kts 247°
2026-04-27 22:20 32.36707 -64.68916 23 ft 1 kts 247°
2026-04-27 22:20 32.36701 -64.68933 19 ft 3 kts 247°
2026-04-27 22:20 32.36687 -64.68972 24 ft 7 kts 246°
2026-04-27 22:20 32.36663 -64.69041 11 ft 11 kts 250°
2026-04-27 22:21 32.36634 -64.69082 37 ft 9 kts 187°
2026-04-27 22:21 32.36608 -64.69057 7 ft 0 kts 103°
2026-04-27 22:22 32.36590 -64.68953 13 ft 50 kts 102°
2026-04-27 22:22 32.36509 -64.68483 19 ft 119 kts 101°
2026-04-27 22:22 32.36314 -64.67364 371 ft 144 kts 105°
2026-04-27 22:23 32.36031 -64.65715 966 ft 167 kts 107°
2026-04-27 22:23 32.35874 -64.64816 1378 ft 170 kts 108°
2026-04-27 22:23 32.35642 -64.63440 2088 ft 172 kts 109°
2026-04-27 22:23 32.35382 -64.61967 2514 ft 195 kts 108°
2026-04-27 22:24 32.35090 -64.60293 2882 ft 219 kts 107°
2026-04-27 22:24 32.34442 -64.58602 3248 ft 236 kts 136°
2026-04-27 22:24 32.33134 -64.57538 4309 ft 226 kts 161°
2026-04-27 22:24 32.31573 -64.57362 5133 ft 229 kts 188°
2026-04-27 22:25 32.30031 -64.57712 6025 ft 232 kts 193°
2026-04-27 22:25 32.28430 -64.58092 6847 ft 236 kts 193°
2026-04-27 22:25 32.26810 -64.58467 7756 ft 238 kts 193°
2026-04-27 22:25 32.25231 -64.59070 8646 ft 241 kts 211°
2026-04-27 22:26 32.23990 -64.60382 9620 ft 242 kts 232°
2026-04-27 22:26 32.23151 -64.62117 10437 ft 245 kts 241°
2026-04-27 22:26 32.22356 -64.63916 11207 ft 248 kts 241°
2026-04-27 22:26 32.21540 -64.65725 11995 ft 251 kts 241°
2026-04-27 22:27 32.20715 -64.67555 12760 ft 254 kts 242°
2026-04-27 22:27 32.19892 -64.69389 13530 ft 257 kts 242°
2026-04-27 22:27 32.19049 -64.71265 14265 ft 260 kts 242°
2026-04-27 22:27 32.18197 -64.73159 14991 ft 262 kts 242°
2026-04-27 22:28 32.17340 -64.75064 15701 ft 264 kts 242°
2026-04-27 22:28 32.16472 -64.76990 16442 ft 267 kts 242°
2026-04-27 22:28 32.15597 -64.78932 17194 ft 269 kts 243°
2026-04-27 22:28 32.14715 -64.80889 17975 ft 271 kts 243°
2026-04-27 22:29 32.13825 -64.82862 18693 ft 274 kts 243°
2026-04-27 22:29 32.12926 -64.84855 19416 ft 275 kts 243°
2026-04-27 22:29 32.12022 -64.86855 20147 ft 277 kts 243°
2026-04-27 22:29 32.11124 -64.88843 20828 ft 280 kts 242°
2026-04-27 22:30 32.10203 -64.90881 21556 ft 283 kts 242°
2026-04-27 22:30 32.09276 -64.92929 22320 ft 284 kts 242°
2026-04-27 22:30 32.08342 -64.94993 23065 ft 286 kts 242°
2026-04-27 22:30 32.07400 -64.97074 23773 ft 289 kts 242°
2026-04-27 22:31 32.06451 -64.99168 24406 ft 290 kts 242°
2026-04-27 22:31 32.05497 -65.01272 25027 ft 292 kts 242°
2026-04-27 22:31 32.04535 -65.03393 25625 ft 295 kts 242°
2026-04-27 22:31 32.03593 -65.05469 26537 ft 281 kts 242°
2026-04-27 22:32 32.02715 -65.07401 27750 ft 258 kts 242°
2026-04-27 22:32 32.01863 -65.09277 28304 ft 263 kts 242°
2026-04-27 22:32 32.00982 -65.11215 28546 ft 278 kts 242°
2026-04-27 22:32 32.00033 -65.13301 28547 ft 300 kts 242°
2026-04-27 22:33 31.99015 -65.15538 28568 ft 320 kts 242°
2026-04-27 22:33 31.97933 -65.17914 28608 ft 338 kts 242°
2026-04-27 22:33 31.96793 -65.20415 28648 ft 355 kts 242°
2026-04-27 22:33 31.95600 -65.23031 28685 ft 371 kts 242°
2026-04-27 22:34 31.94352 -65.25766 28707 ft 386 kts 242°
2026-04-27 22:34 31.93076 -65.28562 28728 ft 400 kts 242°
2026-04-27 22:34 31.91735 -65.31496 28848 ft 412 kts 242°
2026-04-27 22:34 31.90376 -65.34467 29391 ft 412 kts 242°
2026-04-27 22:35 31.89011 -65.37446 29837 ft 415 kts 242°
2026-04-27 22:35 31.87636 -65.40449 30257 ft 418 kts 242°
2026-04-27 22:35 31.86253 -65.43465 30644 ft 420 kts 242°
2026-04-27 22:35 31.84861 -65.46499 31020 ft 423 kts 242°
2026-04-27 22:36 31.83468 -65.49532 31603 ft 420 kts 242°
2026-04-27 22:36 31.82101 -65.52503 32166 ft 418 kts 242°
2026-04-27 22:36 31.80721 -65.55503 32724 ft 416 kts 242°
2026-04-27 22:36 31.79346 -65.58490 33290 ft 415 kts 242°
2026-04-27 22:37 31.77975 -65.61465 33875 ft 413 kts 242°
2026-04-27 22:37 31.76613 -65.64420 34462 ft 409 kts 242°
2026-04-27 22:37 31.75263 -65.67345 35037 ft 406 kts 242°
2026-04-27 22:37 31.73922 -65.70247 35581 ft 403 kts 242°
2026-04-27 22:38 31.72588 -65.73133 36136 ft 401 kts 242°
2026-04-27 22:38 31.71261 -65.76002 36699 ft 398 kts 242°
2026-04-27 22:38 31.69960 -65.78811 37267 ft 396 kts 242°
2026-04-27 22:38 31.68651 -65.81637 37840 ft 393 kts 242°
2026-04-27 22:39 31.67348 -65.84447 38409 ft 391 kts 242°
2026-04-27 22:39 31.66051 -65.87242 38914 ft 389 kts 242°
2026-04-27 22:39 31.64757 -65.90029 39272 ft 389 kts 242°
2026-04-27 22:39 31.63461 -65.92818 39603 ft 390 kts 242°
2026-04-27 22:40 31.62159 -65.95618 39971 ft 391 kts 242°
2026-04-27 22:40 31.60855 -65.98420 40314 ft 392 kts 242°
2026-04-27 22:40 31.59563 -66.01193 40617 ft 393 kts 242°
2026-04-27 22:40 31.58252 -66.04007 40942 ft 394 kts 242°
2026-04-27 22:41 31.56935 -66.06829 41293 ft 395 kts 242°
2026-04-27 22:41 31.55615 -66.09657 41646 ft 395 kts 242°
2026-04-27 22:41 31.54339 -66.12512 41969 ft 396 kts 246°
2026-04-27 22:41 31.53371 -66.15533 42306 ft 396 kts 253°
2026-04-27 22:42 31.52743 -66.18679 42647 ft 397 kts 259°
2026-04-27 22:42 31.52470 -66.21904 42976 ft 398 kts 266°
2026-04-27 22:42 31.52437 -66.25168 43056 ft 405 kts 267°
2026-04-27 22:43 31.52347 -66.31841 43055 ft 420 kts 267°
2026-04-27 22:43 31.52265 -66.38801 43060 ft 434 kts 267°
2026-04-27 22:44 31.52171 -66.45970 43058 ft 443 kts 267°
2026-04-27 22:44 31.52075 -66.53209 43056 ft 445 kts 267°
2026-04-27 22:45 31.51972 -66.60425 43050 ft 447 kts 267°
2026-04-27 22:45 31.51866 -66.67706 43049 ft 447 kts 267°
2026-04-27 22:46 31.51755 -66.74980 43049 ft 447 kts 267°
2026-04-27 22:46 31.51630 -66.82258 43051 ft 447 kts 267°
2026-04-27 22:47 31.51464 -66.89540 43064 ft 447 kts 267°
2026-04-27 22:47 31.51316 -66.96784 43045 ft 448 kts 267°
2026-04-27 22:48 31.51151 -67.04082 43042 ft 448 kts 266°
2026-04-27 22:48 31.50988 -67.11377 43043 ft 448 kts 266°
2026-04-27 22:49 31.50818 -67.18677 43043 ft 448 kts 266°
2026-04-27 22:49 31.50644 -67.25990 43048 ft 449 kts 266°
2026-04-27 22:50 31.50467 -67.33253 43050 ft 449 kts 266°
2026-04-27 22:50 31.50285 -67.40569 43051 ft 449 kts 266°
2026-04-27 22:51 31.50099 -67.47890 43051 ft 449 kts 266°
2026-04-27 22:51 31.49908 -67.55203 43063 ft 450 kts 266°
2026-04-27 22:52 31.49713 -67.62540 43050 ft 451 kts 266°
2026-04-27 22:52 31.49515 -67.69829 43050 ft 451 kts 266°
2026-04-27 22:53 31.49311 -67.77166 43051 ft 451 kts 266°
2026-04-27 22:53 31.49006 -67.84499 43028 ft 450 kts 261°
2026-04-27 22:54 31.47423 -67.91550 43034 ft 449 kts 248°
2026-04-27 22:54 31.44369 -67.97869 43035 ft 453 kts 235°
2026-04-27 22:55 31.39948 -68.03147 43052 ft 458 kts 221°
2026-04-27 22:55 31.34416 -68.06942 43051 ft 467 kts 207°
2026-04-27 22:56 31.28099 -68.08912 43042 ft 477 kts 192°
2026-04-27 22:56 31.21494 -68.09826 43029 ft 477 kts 192°
2026-04-27 22:57 31.14949 -68.10751 43056 ft 477 kts 192°
2026-04-27 22:57 31.08355 -68.11664 43057 ft 477 kts 192°
2026-04-27 22:58 31.01763 -68.12586 43056 ft 477 kts 192°
2026-04-27 22:58 30.95168 -68.13502 43042 ft 476 kts 192°
2026-04-27 22:59 30.88636 -68.14411 43043 ft 476 kts 192°
2026-04-27 22:59 30.82059 -68.15322 43043 ft 476 kts 192°
2026-04-27 23:00 30.72189 -68.16689 43042 ft 476 kts 192°
2026-04-27 23:00 30.65619 -68.17598 43050 ft 475 kts 192°
2026-04-27 23:01 30.59041 -68.18506 43052 ft 476 kts 192°
2026-04-27 23:01 30.52509 -68.19407 43056 ft 476 kts 192°
2026-04-27 23:02 30.45926 -68.20314 43055 ft 476 kts 192°
2026-04-27 23:02 30.39345 -68.21218 43041 ft 476 kts 192°
2026-04-27 23:03 30.32763 -68.22123 43039 ft 476 kts 192°
2026-04-27 23:03 30.26223 -68.23020 43039 ft 476 kts 192°
2026-04-27 23:04 30.19643 -68.23921 43013 ft 476 kts 192°
2026-04-27 23:04 30.13061 -68.24821 43051 ft 476 kts 192°
2026-04-27 23:05 30.06484 -68.25719 43052 ft 476 kts 192°
2026-04-27 23:05 29.99947 -68.26611 43054 ft 476 kts 192°
2026-04-27 23:06 29.93368 -68.27507 43035 ft 476 kts 192°
2026-04-27 23:06 29.86806 -68.28400 43049 ft 475 kts 192°
2026-04-27 23:07 29.80239 -68.29292 43051 ft 475 kts 192°
2026-04-27 23:07 29.73674 -68.30183 43054 ft 475 kts 192°
2026-04-27 23:08 29.67157 -68.31066 43023 ft 475 kts 192°
2026-04-27 23:08 29.60609 -68.31953 43052 ft 474 kts 192°
2026-04-27 23:09 29.54056 -68.32838 43054 ft 474 kts 192°
2026-04-27 23:09 29.47509 -68.33722 43057 ft 474 kts 192°
2026-04-27 23:10 29.40958 -68.34605 43029 ft 473 kts 192°
2026-04-27 23:10 29.34483 -68.35477 43055 ft 472 kts 192°
2026-04-27 23:11 29.27963 -68.36353 43061 ft 472 kts 192°
2026-04-27 23:11 29.21436 -68.37230 43055 ft 472 kts 192°
2026-04-27 23:12 29.14917 -68.38104 43060 ft 472 kts 192°
2026-04-27 23:12 29.08415 -68.38975 43059 ft 470 kts 192°
2026-04-27 23:13 29.01960 -68.39839 43057 ft 470 kts 192°
2026-04-27 23:13 28.95459 -68.40707 43056 ft 470 kts 192°
2026-04-27 23:14 28.88961 -68.41574 43059 ft 470 kts 192°
2026-04-27 23:14 28.82504 -68.42435 43057 ft 470 kts 192°
2026-04-27 23:15 28.76004 -68.43300 43057 ft 470 kts 192°
2026-04-27 23:15 28.69488 -68.44167 43057 ft 472 kts 192°
2026-04-27 23:16 28.62965 -68.45032 43059 ft 472 kts 192°
2026-04-27 23:16 28.56455 -68.45895 43059 ft 471 kts 192°
2026-04-27 23:17 28.50001 -68.46751 43053 ft 470 kts 192°
2026-04-27 23:17 28.43498 -68.47610 43063 ft 471 kts 192°
2026-04-27 23:18 28.36991 -68.48470 43068 ft 470 kts 192°
2026-04-27 23:18 28.30496 -68.49326 43059 ft 469 kts 192°
2026-04-27 23:19 28.24051 -68.50177 43053 ft 470 kts 192°
2026-04-27 23:19 28.17557 -68.51031 43050 ft 470 kts 192°
2026-04-27 23:20 28.11067 -68.51884 43052 ft 469 kts 192°
2026-04-27 23:20 28.04590 -68.52734 43067 ft 468 kts 193°
2026-04-27 23:21 27.98143 -68.53582 43062 ft 470 kts 192°
2026-04-27 23:21 27.91680 -68.54567 43050 ft 467 kts 195°
2026-04-27 23:22 27.85279 -68.55817 43051 ft 467 kts 195°
2026-04-27 23:22 27.78870 -68.57039 43062 ft 465 kts 195°
2026-04-27 23:23 27.72531 -68.58265 43053 ft 465 kts 195°
2026-04-27 23:23 27.66143 -68.59488 43050 ft 466 kts 195°
2026-04-27 23:24 27.59758 -68.60715 43052 ft 466 kts 195°
2026-04-27 23:24 27.53370 -68.61938 43026 ft 465 kts 195°
2026-04-27 23:25 27.47045 -68.63148 43065 ft 464 kts 196°
2026-04-27 23:25 27.40678 -68.64365 43064 ft 464 kts 195°
2026-04-27 23:26 27.34309 -68.65581 43071 ft 464 kts 195°
2026-04-27 23:26 27.27939 -68.66795 43056 ft 464 kts 195°
2026-04-27 23:27 27.21590 -68.68004 43062 ft 462 kts 196°
2026-04-27 23:27 27.15287 -68.69204 43073 ft 462 kts 196°
2026-04-27 23:28 27.08945 -68.70409 43061 ft 462 kts 196°
2026-04-27 23:28 27.02602 -68.71613 43048 ft 462 kts 196°
2026-04-27 23:29 26.96266 -68.72814 43062 ft 462 kts 196°
2026-04-27 23:29 26.89969 -68.74007 43070 ft 462 kts 196°
2026-04-27 23:30 26.83638 -68.75204 43066 ft 461 kts 196°
2026-04-27 23:30 26.77305 -68.76401 43069 ft 461 kts 196°
2026-04-27 23:31 26.70972 -68.77596 43041 ft 461 kts 197°
2026-04-27 23:31 26.64654 -68.78787 43059 ft 460 kts 197°
2026-04-27 23:32 26.58373 -68.79970 43066 ft 461 kts 197°
2026-04-27 23:32 26.52050 -68.81159 43061 ft 461 kts 197°
2026-04-27 23:33 26.45730 -68.82347 43055 ft 461 kts 197°
2026-04-27 23:33 26.39417 -68.83531 43066 ft 460 kts 197°
2026-04-27 23:34 26.33108 -68.84715 43067 ft 460 kts 197°
2026-04-27 23:34 26.26842 -68.85888 43060 ft 460 kts 197°
2026-04-27 23:35 26.20517 -68.87072 43070 ft 461 kts 197°
2026-04-27 23:35 26.14190 -68.88252 43062 ft 461 kts 197°
2026-04-27 23:36 26.07861 -68.89435 43065 ft 461 kts 197°
2026-04-27 23:36 26.01573 -68.90606 43071 ft 461 kts 197°
2026-04-27 23:37 25.95246 -68.91785 43063 ft 461 kts 197°
2026-04-27 23:37 25.88919 -68.92962 43066 ft 461 kts 197°
2026-04-27 23:38 25.82600 -68.94136 43069 ft 460 kts 197°
2026-04-27 23:38 25.76328 -68.95301 43062 ft 460 kts 197°
2026-04-27 23:39 25.70009 -68.96472 43065 ft 460 kts 197°
2026-04-27 23:39 25.63695 -68.97642 43068 ft 460 kts 197°
2026-04-27 23:40 25.57384 -68.98809 43062 ft 459 kts 198°
2026-04-27 23:40 25.51119 -68.99969 43062 ft 459 kts 198°
2026-04-27 23:41 25.44819 -69.01131 43058 ft 459 kts 198°
2026-04-27 23:41 25.38504 -69.02298 43065 ft 461 kts 198°
2026-04-27 23:42 25.32177 -69.03461 43070 ft 461 kts 198°
2026-04-27 23:42 25.25846 -69.04628 43065 ft 461 kts 198°
2026-04-27 23:43 25.19628 -69.05985 43058 ft 453 kts 204°
2026-04-27 23:43 25.13916 -69.08652 43057 ft 440 kts 216°
2026-04-27 23:44 25.09018 -69.12553 43051 ft 430 kts 227°
2026-04-27 23:44 25.05079 -69.17385 43059 ft 425 kts 234°
2026-04-27 23:45 25.00814 -69.21984 43071 ft 432 kts 226°
2026-04-27 23:45 24.96298 -69.26365 43074 ft 433 kts 226°
2026-04-27 23:46 24.91758 -69.30718 43073 ft 432 kts 226°
2026-04-27 23:46 24.87258 -69.35048 43072 ft 432 kts 226°
2026-04-27 23:47 24.82724 -69.39399 43060 ft 432 kts 226°
2026-04-27 23:47 24.78195 -69.43744 43047 ft 432 kts 226°
2026-04-27 23:48 24.73645 -69.48102 43063 ft 433 kts 226°
2026-04-27 23:48 24.69131 -69.52423 43063 ft 433 kts 226°
2026-04-27 23:49 24.64578 -69.56778 43067 ft 434 kts 226°
2026-04-27 23:49 24.60025 -69.61125 43067 ft 434 kts 226°
2026-04-27 23:50 24.55474 -69.65469 43068 ft 433 kts 226°
2026-04-27 23:50 24.50916 -69.69815 43065 ft 436 kts 226°
2026-04-27 23:51 24.46372 -69.74141 43073 ft 435 kts 226°
2026-04-27 23:51 24.41797 -69.78495 43071 ft 435 kts 226°
2026-04-27 23:52 24.37218 -69.82847 43070 ft 435 kts 226°
2026-04-27 23:52 24.32643 -69.87191 43072 ft 436 kts 226°
2026-04-27 23:53 24.28089 -69.91511 43069 ft 436 kts 226°
2026-04-27 23:53 24.23348 -69.95709 43059 ft 443 kts 220°
2026-04-27 23:54 24.17776 -69.98801 43058 ft 457 kts 208°
2026-04-27 23:54 24.11493 -70.00416 43055 ft 473 kts 195°
2026-04-27 23:55 24.04848 -70.00366 43068 ft 487 kts 184°
2026-04-27 23:55 23.98087 -69.99835 43069 ft 487 kts 185°
2026-04-27 23:56 23.91314 -69.99309 43059 ft 488 kts 184°
2026-04-27 23:56 23.84544 -69.98774 43063 ft 488 kts 184°
2026-04-27 23:57 23.77802 -69.98251 43074 ft 489 kts 184°
2026-04-27 23:57 23.71025 -69.97719 43062 ft 488 kts 184°
2026-04-27 23:58 23.64244 -69.97193 43066 ft 490 kts 184°
2026-04-27 23:58 23.57442 -69.96661 43068 ft 490 kts 184°
2026-04-27 23:59 23.50687 -69.96137 43069 ft 490 kts 184°
2026-04-27 23:59 23.43886 -69.95608 43069 ft 490 kts 184°
2026-04-28 00:00 23.37083 -69.95080 43078 ft 490 kts 184°
2026-04-28 00:00 23.30288 -69.94552 43076 ft 490 kts 184°
2026-04-28 00:01 23.23532 -69.94030 43072 ft 490 kts 184°
2026-04-28 00:01 23.16732 -69.93503 43069 ft 490 kts 184°
2026-04-28 00:02 23.09929 -69.92977 43067 ft 490 kts 184°
2026-04-28 00:02 23.03127 -69.92452 43066 ft 492 kts 184°
2026-04-28 00:03 22.96310 -69.91925 43061 ft 491 kts 184°
2026-04-28 00:03 22.89540 -69.91404 43060 ft 491 kts 184°
2026-04-28 00:04 22.79317 -69.90616 43063 ft 491 kts 184°
2026-04-28 00:05 22.72494 -69.90093 43069 ft 494 kts 184°
2026-04-28 00:05 22.65994 -69.89593 43066 ft 493 kts 184°
2026-04-28 00:06 22.59156 -69.89069 43052 ft 492 kts 184°
2026-04-28 00:06 22.52367 -69.88550 43060 ft 492 kts 184°
2026-04-28 00:07 22.45529 -69.88027 43057 ft 492 kts 184°
2026-04-28 00:07 22.38687 -69.87505 43069 ft 493 kts 183°
2026-04-28 00:08 22.31838 -69.86981 43068 ft 493 kts 183°
2026-04-28 00:08 22.25034 -69.86463 43068 ft 493 kts 183°
2026-04-28 00:09 22.18238 -69.85945 43064 ft 495 kts 183°
2026-04-28 00:09 22.11376 -69.85422 43059 ft 494 kts 183°
2026-04-28 00:10 22.04576 -69.84906 43050 ft 494 kts 183°
2026-04-28 00:10 21.97761 -69.84388 43060 ft 494 kts 183°
2026-04-28 00:11 21.90897 -69.83867 43063 ft 494 kts 183°
2026-04-28 00:11 21.84033 -69.83347 43064 ft 494 kts 183°
2026-04-28 00:12 21.77172 -69.82828 43061 ft 495 kts 182°
2026-04-28 00:12 21.70351 -69.82311 43060 ft 495 kts 182°
2026-04-28 00:13 21.63492 -69.81793 43064 ft 495 kts 182°
2026-04-28 00:13 21.56619 -69.81273 43057 ft 495 kts 182°
2026-04-28 00:14 21.49755 -69.80756 43048 ft 493 kts 182°
2026-04-28 00:14 21.42889 -69.80238 43064 ft 495 kts 182°
2026-04-28 00:15 21.36068 -69.79724 43058 ft 494 kts 182°
2026-04-28 00:15 21.29204 -69.79208 43058 ft 495 kts 182°
2026-04-28 00:16 21.22338 -69.78692 43054 ft 494 kts 182°
2026-04-28 00:16 21.15478 -69.78171 43061 ft 495 kts 182°
2026-04-28 00:17 21.08608 -69.77652 43062 ft 495 kts 182°
2026-04-28 00:17 21.01783 -69.77136 43066 ft 495 kts 182°
2026-04-28 00:18 20.94920 -69.76618 43057 ft 495 kts 182°
2026-04-28 00:18 20.88048 -69.76099 43031 ft 495 kts 182°
2026-04-28 00:19 20.81186 -69.75588 43047 ft 495 kts 182°
2026-04-28 00:19 20.74364 -69.75076 43050 ft 495 kts 182°
2026-04-28 00:20 20.67496 -69.74564 43045 ft 495 kts 182°
2026-04-28 00:20 20.60628 -69.74051 43047 ft 495 kts 182°
2026-04-28 00:21 20.53764 -69.73539 43054 ft 494 kts 182°
2026-04-28 00:21 20.46893 -69.73027 43056 ft 495 kts 182°
2026-04-28 00:22 20.40074 -69.72519 43056 ft 495 kts 182°
2026-04-28 00:22 20.36682 -69.72264 42567 ft 483 kts 182°
2026-04-28 00:22 20.33376 -69.72014 41949 ft 469 kts 182°
2026-04-28 00:22 20.30165 -69.71776 41340 ft 457 kts 182°
2026-04-28 00:23 20.27037 -69.71546 40747 ft 445 kts 183°
2026-04-28 00:23 20.23992 -69.71320 40168 ft 433 kts 183°
2026-04-28 00:23 20.21025 -69.71098 39604 ft 422 kts 184°
2026-04-28 00:23 20.18117 -69.70884 39056 ft 416 kts 184°
2026-04-28 00:24 20.15285 -69.70677 38482 ft 412 kts 184°
2026-04-28 00:24 20.12412 -69.70467 37930 ft 416 kts 184°
2026-04-28 00:24 20.09507 -69.70255 37380 ft 421 kts 184°
2026-04-28 00:24 20.06571 -69.70035 36823 ft 424 kts 184°
2026-04-28 00:25 20.03616 -69.69814 36262 ft 427 kts 184°
2026-04-28 00:25 20.00640 -69.69594 35698 ft 430 kts 184°
2026-04-28 00:25 19.97643 -69.69374 35128 ft 433 kts 184°
2026-04-28 00:25 19.94636 -69.69311 34549 ft 430 kts 189°
2026-04-28 00:26 19.91639 -69.69486 33959 ft 433 kts 190°
2026-04-28 00:26 19.88622 -69.69634 33367 ft 436 kts 189°
2026-04-28 00:26 19.85581 -69.69770 32789 ft 439 kts 189°
2026-04-28 00:26 19.82567 -69.69922 32218 ft 441 kts 189°
2026-04-28 00:27 19.79491 -69.70087 31613 ft 444 kts 189°
2026-04-28 00:27 19.76398 -69.70246 31033 ft 447 kts 189°
2026-04-28 00:27 19.73283 -69.70398 30443 ft 449 kts 188°
2026-04-28 00:27 19.70172 -69.70550 29810 ft 445 kts 188°
2026-04-28 00:28 19.67093 -69.70706 29208 ft 442 kts 188°
2026-04-28 00:28 19.64034 -69.70863 28627 ft 439 kts 188°
2026-04-28 00:28 19.60996 -69.71016 28034 ft 436 kts 188°
2026-04-28 00:28 19.57967 -69.71167 27476 ft 434 kts 188°
2026-04-28 00:29 19.55001 -69.71316 26907 ft 431 kts 187°
2026-04-28 00:29 19.52019 -69.71467 26341 ft 428 kts 187°
2026-04-28 00:29 19.49053 -69.71616 25781 ft 425 kts 187°
2026-04-28 00:29 19.46105 -69.71758 25223 ft 423 kts 186°
2026-04-28 00:30 19.43160 -69.71665 24668 ft 423 kts 181°
2026-04-28 00:30 19.40231 -69.71494 24112 ft 420 kts 181°
2026-04-28 00:30 19.37321 -69.71341 23557 ft 417 kts 181°
2026-04-28 00:30 19.34471 -69.71212 22974 ft 414 kts 181°
2026-04-28 00:31 19.31604 -69.71077 22431 ft 411 kts 181°
2026-04-28 00:31 19.28759 -69.70930 21886 ft 407 kts 180°
2026-04-28 00:31 19.25944 -69.70778 21356 ft 404 kts 179°
2026-04-28 00:31 19.23222 -69.70001 20848 ft 411 kts 158°
2026-04-28 00:32 19.20932 -69.68167 20335 ft 416 kts 138°
2026-04-28 00:32 19.19115 -69.65878 19840 ft 397 kts 131°
2026-04-28 00:32 19.17508 -69.63597 19344 ft 378 kts 130°
2026-04-28 00:32 19.15913 -69.61464 18863 ft 362 kts 134°
2026-04-28 00:33 19.14200 -69.59634 18384 ft 348 kts 142°
2026-04-28 00:33 19.12322 -69.58093 17904 ft 336 kts 147°
2026-04-28 00:33 19.10440 -69.56667 17465 ft 331 kts 147°
2026-04-28 00:33 19.08637 -69.55157 17020 ft 330 kts 143°
2026-04-28 00:34 19.06909 -69.53584 16584 ft 327 kts 143°
2026-04-28 00:34 19.05163 -69.52044 16161 ft 324 kts 144°
2026-04-28 00:34 19.03408 -69.50558 15736 ft 322 kts 145°
2026-04-28 00:34 19.01671 -69.49074 15319 ft 320 kts 144°
2026-04-28 00:35 18.99956 -69.47583 14902 ft 318 kts 144°
2026-04-28 00:35 18.98276 -69.46125 14493 ft 316 kts 144°
2026-04-28 00:35 18.96577 -69.44661 14077 ft 314 kts 144°
2026-04-28 00:35 18.94885 -69.43205 13640 ft 312 kts 144°
2026-04-28 00:36 18.93215 -69.41756 13216 ft 310 kts 143°
2026-04-28 00:36 18.91592 -69.40298 12810 ft 301 kts 142°
2026-04-28 00:36 18.90036 -69.38890 12425 ft 289 kts 142°
2026-04-28 00:36 18.88525 -69.37546 12050 ft 279 kts 142°
2026-04-28 00:37 18.87063 -69.36252 11704 ft 270 kts 142°
2026-04-28 00:37 18.85647 -69.34991 11362 ft 264 kts 142°
2026-04-28 00:37 18.84254 -69.33750 11024 ft 260 kts 142°
2026-04-28 00:37 18.82878 -69.32526 10689 ft 257 kts 142°
2026-04-28 00:38 18.81534 -69.31330 10361 ft 255 kts 142°
2026-04-28 00:38 18.80181 -69.30127 10028 ft 253 kts 142°
2026-04-28 00:38 18.78837 -69.28932 9676 ft 252 kts 142°
2026-04-28 00:38 18.77501 -69.27743 9341 ft 251 kts 141°
2026-04-28 00:39 18.76168 -69.26558 9022 ft 251 kts 141°
2026-04-28 00:39 18.74836 -69.25375 8693 ft 250 kts 141°
2026-04-28 00:39 18.73501 -69.24199 8363 ft 249 kts 143°
2026-04-28 00:39 18.72117 -69.23106 8035 ft 249 kts 143°
2026-04-28 00:40 18.70779 -69.21951 7717 ft 248 kts 141°
2026-04-28 00:40 18.69454 -69.20823 7395 ft 248 kts 142°
2026-04-28 00:40 18.68097 -69.19706 7072 ft 247 kts 143°
2026-04-28 00:40 18.66752 -69.18599 6748 ft 244 kts 142°
2026-04-28 00:41 18.65425 -69.17499 6427 ft 241 kts 142°
2026-04-28 00:41 18.64109 -69.16406 6096 ft 240 kts 142°
2026-04-28 00:41 18.62798 -69.15320 5778 ft 239 kts 142°
2026-04-28 00:41 18.61489 -69.14238 5463 ft 239 kts 142°
2026-04-28 00:42 18.60185 -69.13158 5148 ft 238 kts 142°
2026-04-28 00:42 18.58905 -69.12098 4846 ft 237 kts 141°
2026-04-28 00:42 18.57610 -69.11026 4522 ft 235 kts 141°
2026-04-28 00:42 18.56329 -69.09967 4211 ft 233 kts 141°
2026-04-28 00:43 18.55059 -69.08919 3904 ft 230 kts 141°
2026-04-28 00:43 18.53624 -69.08199 3531 ft 231 kts 169°
2026-04-28 00:43 18.52043 -69.08251 3279 ft 224 kts 185°
2026-04-28 00:43 18.50521 -69.08466 3012 ft 218 kts 184°
2026-04-28 00:44 18.49069 -69.08483 2675 ft 204 kts 164°
2026-04-28 00:44 18.47881 -69.07792 2494 ft 191 kts 136°
2026-04-28 00:44 18.47144 -69.06643 2512 ft 192 kts 109°
2026-04-28 00:44 18.46911 -69.05284 2439 ft 193 kts 96°
2026-04-28 00:45 18.46757 -69.03919 2293 ft 187 kts 97°
2026-04-28 00:45 18.46593 -69.02559 2053 ft 188 kts 97°
2026-04-28 00:45 18.46433 -69.01216 1805 ft 172 kts 96°
2026-04-28 00:45 18.46299 -69.00079 1583 ft 143 kts 97°
2026-04-28 00:46 18.46186 -68.99104 1388 ft 128 kts 96°
2026-04-28 00:46 18.46079 -68.98199 1246 ft 125 kts 95°
2026-04-28 00:46 18.45974 -68.97310 1102 ft 120 kts 96°
2026-04-28 00:46 18.45904 -68.96722 991 ft 121 kts 96°
2026-04-28 00:47 18.45764 -68.95544 817 ft 125 kts 97°
2026-04-28 00:47 18.45692 -68.94946 785 ft 124 kts 96°
2026-04-28 00:47 18.45529 -68.93660 1025 ft 141 kts 97°
2026-04-28 00:47 18.45383 -68.92581 1253 ft 160 kts 97°
2026-04-28 00:48 18.45249 -68.91354 1584 ft 175 kts 96°
2026-04-28 00:48 18.45121 -68.90049 2058 ft 182 kts 97°
2026-04-28 00:48 18.44984 -68.88705 2593 ft 187 kts 97°
2026-04-28 00:48 18.44773 -68.87343 3026 ft 195 kts 109°
2026-04-28 00:49 18.44235 -68.86527 2972 ft 219 kts 138°
2026-04-28 00:49 18.42805 -68.86007 2996 ft 215 kts 177°
2026-04-28 00:49 18.40949 -68.86290 3048 ft 199 kts 187°
2026-04-28 00:49 18.39604 -68.86546 3036 ft 194 kts 187°
2026-04-28 00:50 18.38293 -68.86824 3016 ft 193 kts 195°
2026-04-28 00:50 18.37307 -68.87771 2888 ft 200 kts 245°
2026-04-28 00:50 18.37156 -68.88718 2918 ft 196 kts 268°
2026-04-28 00:50 18.37241 -68.90173 3047 ft 200 kts 277°
2026-04-28 00:51 18.37421 -68.91626 3050 ft 203 kts 277°
2026-04-28 00:51 18.37612 -68.93106 3033 ft 202 kts 277°
2026-04-28 00:51 18.37797 -68.94564 3045 ft 199 kts 278°
2026-04-28 00:51 18.37979 -68.96009 3026 ft 202 kts 277°
2026-04-28 00:52 18.38168 -68.97473 3035 ft 201 kts 278°
2026-04-28 00:52 18.38350 -68.98936 3028 ft 203 kts 277°
2026-04-28 00:52 18.38538 -69.00423 2903 ft 207 kts 277°
2026-04-28 00:52 18.38732 -69.01917 2705 ft 205 kts 277°
2026-04-28 00:53 18.38969 -69.03373 2465 ft 205 kts 289°
2026-04-28 00:53 18.39880 -69.04499 2027 ft 209 kts 335°
2026-04-28 00:53 18.41213 -69.04670 1974 ft 179 kts
2026-04-28 00:53 18.42415 -69.04575 2044 ft 172 kts
2026-04-28 00:54 18.43576 -69.04366 2021 ft 167 kts 23°
2026-04-28 00:54 18.44569 -69.03750 1913 ft 166 kts 37°
2026-04-28 00:54 18.45463 -69.03062 1847 ft 157 kts 41°
2026-04-28 00:54 18.46220 -69.02237 1706 ft 156 kts 59°
2026-04-28 00:55 18.46396 -69.01129 1575 ft 156 kts 93°
2026-04-28 00:55 18.46321 -69.00115 1471 ft 130 kts 96°
2026-04-28 00:55 18.46195 -68.99136 1300 ft 138 kts 97°
2026-04-28 00:55 18.46035 -68.98159 1133 ft 134 kts 97°
2026-04-28 00:56 18.45919 -68.97226 1108 ft 125 kts 96°
2026-04-28 00:56 18.45833 -68.96315 996 ft 124 kts 97°
2026-04-28 00:56 18.45726 -68.95425 889 ft 121 kts 97°
2026-04-28 00:56 18.45631 -68.94539 693 ft 123 kts 96°
2026-04-28 00:57 18.45535 -68.93634 528 ft 126 kts 95°
2026-04-28 00:57 18.45431 -68.92716 333 ft 124 kts 97°
2026-04-28 00:57 18.45333 -68.91846 219 ft 114 kts 97°
2026-04-28 00:57 18.45258 -68.91206 219 ft 60 kts 97°
2026-04-28 00:58 18.45219 -68.90884 218 ft 40 kts 97°
2026-04-28 00:58 18.45187 -68.90593 219 ft 40 kts 96°
2026-04-28 00:58 18.45154 -68.90309 216 ft 39 kts 97°
2026-04-28 00:58 18.45119 -68.90030 215 ft 35 kts 98°
2026-04-28 00:59 18.45101 -68.89877 216 ft 12 kts 101°
2026-04-28 00:59 18.45057 -68.89817 215 ft 8 kts 109°
2026-04-28 00:59 18.45092 -68.89804 216 ft 8 kts 301°
2026-04-28 00:59 18.45103 -68.89891 216 ft 16 kts 276°
2026-04-28 01:00 18.45116 -68.90022 215 ft 21 kts 276°
2026-04-28 01:00 18.45135 -68.90188 214 ft 24 kts 276°
2026-04-28 01:00 18.45155 -68.90367 217 ft 25 kts 276°
2026-04-28 01:00 18.45179 -68.90559 218 ft 27 kts 277°
2026-04-28 01:01 18.45202 -68.90765 219 ft 30 kts 277°
2026-04-28 01:01 18.45228 -68.90981 218 ft 25 kts 277°
2026-04-28 01:01 18.45239 -68.91117 220 ft 14 kts 244°
2026-04-28 01:01 18.45142 -68.91149 219 ft 17 kts 187°
2026-04-28 01:02 18.45033 -68.91163 217 ft 11 kts 183°
2026-04-28 01:02 18.44981 -68.91135 217 ft 7 kts 151°
2026-04-28 01:02 18.44934 -68.91137 217 ft 7 kts 187°
2026-04-28 01:02 18.44917 -68.91140 217 ft 0 kts 187°